TimeEST,TemperatureF,Dew PointF,Humidity,Sea Level PressureIn,VisibilityMPH,Wind Direction,Wind SpeedMPH,Gust SpeedMPH,PrecipitationIn,Events,Conditions,WindDirDegrees,DateUTC
12:52 AM,27.0,21.9,81,30.39,10.0,South,4.6,-,N/A,,Clear,180,2012-12-13 05:52:00
1:52 AM,26.1,21.0,81,30.39,10.0,South,3.5,-,N/A,,Clear,190,2012-12-13 06:52:00
2:52 AM,26.1,21.0,81,30.39,10.0,South,3.5,-,N/A,,Clear,190,2012-12-13 07:52:00
3:52 AM,26.1,21.0,81,30.40,10.0,South,4.6,-,N/A,,Clear,180,2012-12-13 08:52:00
4:52 AM,24.1,19.9,84,30.39,10.0,South,5.8,-,N/A,,Clear,190,2012-12-13 09:52:00
5:52 AM,25.0,21.0,85,30.41,10.0,Calm,Calm,-,N/A,,Clear,0,2012-12-13 10:52:00
6:52 AM,19.9,17.1,89,30.42,7.0,Calm,Calm,-,N/A,,Clear,0,2012-12-13 11:52:00
7:52 AM,19.0,17.1,92,30.42,5.0,South,3.5,-,N/A,,Clear,170,2012-12-13 12:52:00
8:52 AM,27.0,21.9,81,30.41,10.0,South,4.6,-,N/A,,Clear,180,2012-12-13 13:52:00
9:52 AM,32.0,24.1,73,30.40,10.0,SSW,5.8,-,N/A,,Clear,200,2012-12-13 14:52:00
10:52 AM,37.0,24.1,59,30.39,10.0,SSW,11.5,-,N/A,,Clear,200,2012-12-13 15:52:00
11:52 AM,39.9,24.1,53,30.38,10.0,SW,11.5,-,N/A,,Clear,220,2012-12-13 16:52:00
12:52 PM,42.1,23.0,47,30.35,10.0,SSW,10.4,-,N/A,,Clear,200,2012-12-13 17:52:00
1:52 PM,44.1,21.9,42,30.33,10.0,SSW,10.4,-,N/A,,Clear,200,2012-12-13 18:52:00
2:52 PM,43.0,23.0,45,30.30,10.0,SSW,10.4,-,N/A,,Clear,200,2012-12-13 19:52:00
3:52 PM,43.0,21.9,43,30.30,10.0,SSW,8.1,-,N/A,,Clear,200,2012-12-13 20:52:00
4:52 PM,39.9,25.0,55,30.27,10.0,South,6.9,-,N/A,,Clear,180,2012-12-13 21:52:00
7:52 PM,35.1,26.1,70,30.25,10.0,South,9.2,-,N/A,,Clear,190,2012-12-14 00:52:00
8:52 PM,35.1,25.0,67,30.24,10.0,South,6.9,-,N/A,,Clear,190,2012-12-14 01:52:00
9:52 PM,35.1,24.1,64,30.22,10.0,South,8.1,-,N/A,,Clear,190,2012-12-14 02:52:00
10:52 PM,36.0,24.1,62,30.21,10.0,SSW,8.1,-,N/A,,Clear,200,2012-12-14 03:52:00
11:52 PM,36.0,24.1,62,30.22,10.0,SW,9.2,-,N/A,,Clear,220,2012-12-14 04:52:00